KQA414 HKJK-HUEN

Flight info

Callsign KQA414
Flight time 0h 50m
Altitude 34000
Route APKUB1A/06 APKUB UQ293 IMPOG IMPOG2C
Aircraft B738/M-SDE2E3FGHIRWXY/LB1

Departure

Time 2026-04-26 11:52
Airport Jomo Kenyatta International Airport (HKJK)

Arrival

Time 2026-04-26 12:42
Airport Entebbe International Airport (HUEN)
Time Latitude Longitude Altitude Speed Heading
2026-04-26 10:56 -1.32951 36.92338 5323 ft 0 kts 122°
2026-04-26 11:42 -1.32923 36.92293 5316 ft 2 kts 122°
2026-04-26 11:43 -1.32914 36.92271 5315 ft 4 kts 87°
2026-04-26 11:43 -1.32922 36.92248 5322 ft 4 kts 39°
2026-04-26 11:43 -1.32944 36.92237 5316 ft 4 kts 20°
2026-04-26 11:43 -1.32953 36.92234 5314 ft 0 kts 20°
2026-04-26 11:46 -1.32939 36.92239 5313 ft 6 kts 23°
2026-04-26 11:47 -1.32891 36.92259 5317 ft 7 kts 13°
2026-04-26 11:47 -1.32852 36.92247 5319 ft 5 kts 324°
2026-04-26 11:47 -1.32822 36.92226 5319 ft 6 kts 323°
2026-04-26 11:47 -1.32790 36.92198 5322 ft 7 kts 306°
2026-04-26 11:48 -1.32804 36.92132 5325 ft 12 kts 234°
2026-04-26 11:48 -1.32854 36.92064 5322 ft 12 kts 232°
2026-04-26 11:48 -1.32903 36.91999 5320 ft 12 kts 234°
2026-04-26 11:48 -1.32949 36.91935 5332 ft 11 kts 234°
2026-04-26 11:49 -1.32988 36.91883 5332 ft 8 kts 233°
2026-04-26 11:49 -1.33003 36.91848 5334 ft 7 kts 265°
2026-04-26 11:49 -1.32979 36.91806 5337 ft 10 kts 322°
2026-04-26 11:49 -1.32881 36.91737 5339 ft 13 kts 324°
2026-04-26 11:50 -1.32834 36.91703 5335 ft 12 kts 324°
2026-04-26 11:50 -1.32771 36.91660 5337 ft 9 kts 338°
2026-04-26 11:50 -1.32730 36.91677 5339 ft 7 kts 47°
2026-04-26 11:50 -1.32707 36.91707 5334 ft 0 kts 54°
2026-04-26 11:51 -1.32601 36.91854 5329 ft 61 kts 54°
2026-04-26 11:51 -1.32215 36.92381 5320 ft 125 kts 54°
2026-04-26 11:51 -1.31588 36.93230 5331 ft 175 kts 54°
2026-04-26 11:52 -1.30797 36.94230 5826 ft 191 kts 53°
2026-04-26 11:52 -1.29951 36.95343 6350 ft 206 kts 57°
2026-04-26 11:52 -1.29128 36.96480 7141 ft 199 kts 56°
2026-04-26 11:52 -1.28268 36.97645 7428 ft 219 kts 55°
2026-04-26 11:53 -1.27321 36.98921 7590 ft 239 kts 54°
2026-04-26 11:53 -1.26290 37.00308 7777 ft 257 kts 54°
2026-04-26 11:53 -1.25204 37.01752 8190 ft 262 kts 52°
2026-04-26 11:54 -1.21860 37.02870 9117 ft 272 kts 348°
2026-04-26 11:54 -1.20140 37.02067 9528 ft 277 kts 321°
2026-04-26 11:54 -1.18910 37.00594 10018 ft 278 kts 296°
2026-04-26 11:54 -1.18363 36.98756 10479 ft 277 kts 278°
2026-04-26 11:55 -1.18127 36.96830 10859 ft 282 kts 275°
2026-04-26 11:55 -1.17942 36.94867 11303 ft 284 kts 275°
2026-04-26 11:55 -1.17762 36.92884 11686 ft 294 kts 275°
2026-04-26 11:55 -1.17566 36.90772 11790 ft 317 kts 275°
2026-04-26 11:56 -1.17348 36.88500 11984 ft 340 kts 275°
2026-04-26 11:56 -1.17110 36.86097 12346 ft 354 kts 276°
2026-04-26 11:56 -1.16871 36.83632 12964 ft 359 kts 276°
2026-04-26 11:56 -1.16639 36.81139 13675 ft 362 kts 276°
2026-04-26 11:57 -1.16399 36.78619 14302 ft 367 kts 276°
2026-04-26 11:57 -1.16146 36.76067 14907 ft 371 kts 276°
2026-04-26 11:57 -1.15887 36.73529 15595 ft 374 kts 276°
2026-04-26 11:57 -1.15615 36.70924 16158 ft 379 kts 276°
2026-04-26 11:58 -1.15335 36.68271 16867 ft 380 kts 276°
2026-04-26 11:58 -1.15058 36.65653 17398 ft 387 kts 276°
2026-04-26 11:58 -1.14771 36.62968 18033 ft 391 kts 277°
2026-04-26 11:58 -1.14481 36.60248 18640 ft 395 kts 277°
2026-04-26 11:59 -1.14190 36.57515 19047 ft 394 kts 277°
2026-04-26 11:59 -1.13898 36.54780 19128 ft 394 kts 277°
2026-04-26 11:59 -1.13609 36.52069 19148 ft 393 kts 277°
2026-04-26 11:59 -1.13318 36.49337 19183 ft 400 kts 277°
2026-04-26 12:00 -1.13021 36.46562 19670 ft 402 kts 277°
2026-04-26 12:00 -1.12725 36.43782 20224 ft 403 kts 277°
2026-04-26 12:00 -1.12426 36.40983 20759 ft 406 kts 277°
2026-04-26 12:00 -1.12084 36.38176 21236 ft 409 kts 282°
2026-04-26 12:01 -1.11294 36.35450 21692 ft 410 kts 292°
2026-04-26 12:01 -1.10255 36.32781 22181 ft 413 kts 293°
2026-04-26 12:01 -1.09180 36.30113 22643 ft 416 kts 293°
2026-04-26 12:01 -1.08090 36.27419 23094 ft 419 kts 293°
2026-04-26 12:02 -1.07003 36.24709 23536 ft 422 kts 293°
2026-04-26 12:02 -1.05915 36.21969 23894 ft 426 kts 293°
2026-04-26 12:02 -1.04824 36.19198 24241 ft 430 kts 292°
2026-04-26 12:02 -1.03733 36.16410 24639 ft 431 kts 292°
2026-04-26 12:03 -1.02642 36.13610 25041 ft 432 kts 292°
2026-04-26 12:03 -1.01551 36.10808 25426 ft 434 kts 292°
2026-04-26 12:03 -1.00453 36.07985 25769 ft 437 kts 292°
2026-04-26 12:03 -0.99350 36.05148 26119 ft 439 kts 292°
2026-04-26 12:04 -0.98242 36.02298 26512 ft 440 kts 292°
2026-04-26 12:04 -0.97133 35.99445 26959 ft 440 kts 292°
2026-04-26 12:04 -0.96029 35.96608 27449 ft 438 kts 292°
2026-04-26 12:04 -0.94929 35.93779 27961 ft 436 kts 292°
2026-04-26 12:05 -0.93833 35.90961 28452 ft 434 kts 293°
2026-04-26 12:05 -0.92739 35.88149 28939 ft 434 kts 292°
2026-04-26 12:05 -0.91647 35.85346 29464 ft 431 kts 292°
2026-04-26 12:05 -0.90567 35.82569 30038 ft 428 kts 292°
2026-04-26 12:06 -0.89488 35.79799 30475 ft 428 kts 292°
2026-04-26 12:06 -0.88408 35.77023 30820 ft 429 kts 292°
2026-04-26 12:06 -0.87325 35.74242 31136 ft 430 kts 292°
2026-04-26 12:06 -0.86243 35.71462 31528 ft 430 kts 292°
2026-04-26 12:07 -0.85162 35.68684 31991 ft 427 kts 292°
2026-04-26 12:07 -0.84087 35.65923 32461 ft 425 kts 292°
2026-04-26 12:07 -0.83019 35.63178 32847 ft 424 kts 292°
2026-04-26 12:07 -0.81949 35.60428 33217 ft 424 kts 292°
2026-04-26 12:08 -0.80882 35.57688 33612 ft 423 kts 292°
2026-04-26 12:08 -0.79816 35.54951 34017 ft 422 kts 292°
2026-04-26 12:08 -0.78746 35.52203 34081 ft 428 kts 292°
2026-04-26 12:09 -0.76555 35.46579 34111 ft 441 kts 293°
2026-04-26 12:09 -0.74300 35.40788 34107 ft 453 kts 292°
2026-04-26 12:10 -0.71992 35.34860 34092 ft 463 kts 292°
2026-04-26 12:10 -0.69630 35.28794 34088 ft 473 kts 292°
2026-04-26 12:11 -0.67241 35.22657 34068 ft 481 kts 292°
2026-04-26 12:11 -0.64802 35.16392 34066 ft 487 kts 292°
2026-04-26 12:12 -0.62347 35.10084 34039 ft 488 kts 292°
2026-04-26 12:12 -0.59886 35.03762 34024 ft 488 kts 293°
2026-04-26 12:13 -0.57423 34.97438 34024 ft 488 kts 293°
2026-04-26 12:13 -0.54963 34.91120 34006 ft 488 kts 293°
2026-04-26 12:14 -0.52503 34.84804 33998 ft 488 kts 293°
2026-04-26 12:14 -0.50044 34.78490 33965 ft 487 kts 293°
2026-04-26 12:15 -0.47589 34.72185 33962 ft 487 kts 293°
2026-04-26 12:15 -0.45138 34.65893 33957 ft 486 kts 293°
2026-04-26 12:16 -0.42688 34.59601 33952 ft 486 kts 292°
2026-04-26 12:16 -0.40239 34.53311 33952 ft 485 kts 293°
2026-04-26 12:17 -0.37773 34.47032 33948 ft 485 kts 294°
2026-04-26 12:17 -0.35150 34.40827 33952 ft 485 kts 295°
2026-04-26 12:18 -0.32507 34.34680 33947 ft 485 kts 295°
2026-04-26 12:18 -0.29870 34.28486 33952 ft 484 kts 294°
2026-04-26 12:19 -0.27233 34.22255 33951 ft 484 kts 294°
2026-04-26 12:19 -0.24612 34.16058 33959 ft 484 kts 294°
2026-04-26 12:20 -0.22009 34.09903 33963 ft 484 kts 294°
2026-04-26 12:20 -0.19369 34.03666 33960 ft 484 kts 294°
2026-04-26 12:21 -0.16785 33.97556 33612 ft 468 kts 295°
2026-04-26 12:21 -0.15535 33.94622 33255 ft 461 kts 295°
2026-04-26 12:21 -0.14289 33.91710 32825 ft 451 kts 295°
2026-04-26 12:21 -0.13073 33.88870 32418 ft 438 kts 295°
2026-04-26 12:22 -0.11889 33.86105 32012 ft 427 kts 295°
2026-04-26 12:22 -0.10736 33.83412 31647 ft 416 kts 295°
2026-04-26 12:22 -0.09611 33.80785 31272 ft 406 kts 295°
2026-04-26 12:22 -0.08514 33.78220 30920 ft 397 kts 295°
2026-04-26 12:23 -0.07440 33.75710 30573 ft 389 kts 295°
2026-04-26 12:23 -0.06387 33.73248 30155 ft 383 kts 295°
2026-04-26 12:23 -0.05330 33.70781 29200 ft 390 kts 295°
2026-04-26 12:23 -0.04258 33.68278 28343 ft 393 kts 294°
2026-04-26 12:24 -0.03184 33.65766 27686 ft 391 kts 294°
2026-04-26 12:24 -0.02122 33.63280 27121 ft 387 kts 294°
2026-04-26 12:24 -0.01073 33.60827 26594 ft 382 kts 294°
2026-04-26 12:25 0.00997 33.55985 25423 ft 377 kts 294°
2026-04-26 12:25 0.02025 33.53581 24858 ft 375 kts 294°
2026-04-26 12:25 0.03033 33.51189 24329 ft 372 kts 292°
2026-04-26 12:25 0.03940 33.48778 23835 ft 369 kts 291°
2026-04-26 12:26 0.04793 33.46368 23277 ft 367 kts 290°
2026-04-26 12:26 0.05630 33.43968 22540 ft 367 kts 290°
2026-04-26 12:26 0.06486 33.41517 21337 ft 382 kts 290°
2026-04-26 12:26 0.07350 33.39061 21112 ft 371 kts 290°
2026-04-26 12:27 0.08229 33.36579 20750 ft 388 kts 290°
2026-04-26 12:27 0.09148 33.33995 20346 ft 399 kts 290°
2026-04-26 12:27 0.10081 33.31378 19946 ft 399 kts 290°
2026-04-26 12:27 0.11009 33.28781 19536 ft 395 kts 290°
2026-04-26 12:28 0.11926 33.26215 19150 ft 390 kts 290°
2026-04-26 12:28 0.12835 33.23672 18749 ft 387 kts 290°
2026-04-26 12:28 0.13742 33.21135 18371 ft 390 kts 290°
2026-04-26 12:28 0.14658 33.18574 17927 ft 390 kts 290°
2026-04-26 12:29 0.15569 33.16027 17516 ft 388 kts 290°
2026-04-26 12:29 0.16471 33.13504 17115 ft 383 kts 290°
2026-04-26 12:29 0.18242 33.08553 16343 ft 374 kts 290°
2026-04-26 12:30 0.19112 33.06120 15978 ft 370 kts 290°
2026-04-26 12:30 0.19974 33.03710 15623 ft 367 kts 290°
2026-04-26 12:30 0.20830 33.01315 15248 ft 365 kts 290°
2026-04-26 12:31 0.22527 32.96572 14507 ft 361 kts 290°
2026-04-26 12:31 0.23370 32.94213 14156 ft 359 kts 290°
2026-04-26 12:31 0.24209 32.91867 13788 ft 358 kts 290°
2026-04-26 12:31 0.25045 32.89529 13364 ft 357 kts 290°
2026-04-26 12:32 0.25878 32.87199 12995 ft 355 kts 290°
2026-04-26 12:32 0.26706 32.84883 12629 ft 352 kts 290°
2026-04-26 12:32 0.28348 32.80290 11834 ft 349 kts 290°
2026-04-26 12:33 0.29162 32.78016 11482 ft 347 kts 290°
2026-04-26 12:33 0.29874 32.75725 11125 ft 344 kts 278°
2026-04-26 12:33 0.29855 32.73404 11036 ft 325 kts 263°
2026-04-26 12:33 0.29552 32.71232 10903 ft 308 kts 261°
2026-04-26 12:34 0.29229 32.69147 10486 ft 302 kts 261°
2026-04-26 12:34 0.28909 32.67073 9997 ft 302 kts 261°
2026-04-26 12:34 0.28704 32.65705 9680 ft 300 kts 261°
2026-04-26 12:34 0.28402 32.63654 9185 ft 297 kts 261°
2026-04-26 12:35 0.28017 32.60969 8584 ft 293 kts 261°
2026-04-26 12:35 0.27735 32.58965 8109 ft 290 kts 261°
2026-04-26 12:35 0.27455 32.56976 7668 ft 288 kts 261°
2026-04-26 12:35 0.27179 32.55014 7269 ft 283 kts 261°
2026-04-26 12:36 0.26906 32.53071 6843 ft 284 kts 260°
2026-04-26 12:36 0.26720 32.51752 6660 ft 282 kts 260°
2026-04-26 12:36 0.26449 32.49825 6434 ft 278 kts 261°
2026-04-26 12:36 0.26182 32.47931 6215 ft 273 kts 261°
2026-04-26 12:37 0.25922 32.46077 6008 ft 264 kts 260°
2026-04-26 12:37 0.25673 32.44306 5841 ft 259 kts 260°
2026-04-26 12:37 0.25191 32.42618 5644 ft 248 kts 235°
2026-04-26 12:37 0.23911 32.41580 5597 ft 229 kts 196°
2026-04-26 12:38 0.22421 32.41420 5554 ft 210 kts 179°
2026-04-26 12:38 0.21019 32.41489 5536 ft 194 kts 174°
2026-04-26 12:38 0.19703 32.41645 5539 ft 187 kts 172°
2026-04-26 12:38 0.18417 32.41823 5564 ft 188 kts 172°
2026-04-26 12:39 0.17107 32.42007 5559 ft 193 kts 172°
2026-04-26 12:39 0.15766 32.42196 5583 ft 195 kts 172°
2026-04-26 12:39 0.14430 32.42382 5513 ft 190 kts 172°
2026-04-26 12:39 0.13157 32.42560 5292 ft 178 kts 172°
2026-04-26 12:40 0.11978 32.42725 5108 ft 163 kts 172°
2026-04-26 12:40 0.10903 32.42875 4884 ft 149 kts 171°
2026-04-26 12:40 0.09863 32.43024 4689 ft 159 kts 171°
2026-04-26 12:40 0.08784 32.43171 4491 ft 153 kts 174°
2026-04-26 12:41 0.07733 32.43316 4265 ft 150 kts 173°
2026-04-26 12:41 0.06709 32.43461 4086 ft 148 kts 174°
2026-04-26 12:41 0.05685 32.43603 3849 ft 149 kts 174°
2026-04-26 12:41 0.04692 32.43742 3779 ft 132 kts 171°
2026-04-26 12:42 0.03929 32.43847 3777 ft 90 kts 172°
2026-04-26 12:42 0.03425 32.43917 3768 ft 65 kts 173°
2026-04-26 12:42 0.03056 32.43967 3765 ft 34 kts 172°
2026-04-26 12:42 0.02874 32.44066 3770 ft 27 kts 140°
2026-04-26 12:43 0.02858 32.44166 3767 ft 14 kts
2026-04-26 12:43 0.02925 32.44159 3770 ft 7 kts 351°
2026-04-26 12:43 0.02961 32.44153 3762 ft 6 kts 352°
2026-04-26 12:43 0.02991 32.44150 3767 ft 2 kts 353°
2026-04-26 12:44 0.02992 32.44149 3768 ft 0 kts 353°
2026-04-26 12:44 0.02995 32.44149 3769 ft 0 kts 352°
2026-04-26 12:44 0.03008 32.44147 3770 ft 5 kts 352°
2026-04-26 12:44 0.03055 32.44141 3766 ft 8 kts 352°
2026-04-26 12:45 0.03114 32.44133 3779 ft 11 kts 352°
2026-04-26 12:45 0.03196 32.44121 3774 ft 12 kts 352°
2026-04-26 12:45 0.03277 32.44110 3769 ft 12 kts 352°
2026-04-26 12:45 0.03355 32.44098 3772 ft 11 kts 352°
2026-04-26 12:46 0.03444 32.44086 3769 ft 14 kts 352°
2026-04-26 12:46 0.03539 32.44073 3770 ft 14 kts 352°
2026-04-26 12:46 0.03631 32.44061 3777 ft 13 kts 352°
2026-04-26 12:46 0.03720 32.44048 3781 ft 13 kts 352°
2026-04-26 12:47 0.03813 32.44035 3771 ft 14 kts 352°
2026-04-26 12:47 0.03907 32.44022 3775 ft 15 kts 352°
2026-04-26 12:47 0.04012 32.44007 3773 ft 16 kts 352°
2026-04-26 12:47 0.04123 32.43992 3778 ft 16 kts 352°
2026-04-26 12:48 0.04194 32.43995 3780 ft 1 kts 46°
2026-04-26 12:48 0.04199 32.44005 3781 ft 6 kts 64°
2026-04-26 12:48 0.04212 32.44068 3784 ft 10 kts 82°
2026-04-26 12:48 0.04235 32.44129 3781 ft 8 kts 37°
2026-04-26 12:49 0.04273 32.44139 3783 ft 6 kts 34°
2026-04-26 12:49 0.04287 32.44182 3783 ft 6 kts 82°
2026-04-26 12:49 0.04292 32.44208 3779 ft 3 kts 83°
2026-04-26 12:49 0.04294 32.44229 3783 ft 0 kts 82°
2026-04-26 12:50 0.04294 32.44230 3783 ft 0 kts 82°